TimeMDT,TemperatureF,Dew PointF,Humidity,Sea Level PressureIn,VisibilityMPH,Wind Direction,Wind SpeedMPH,Gust SpeedMPH,PrecipitationIn,Events,Conditions,WindDirDegrees,DateUTC
12:56 AM,32.0,21.9,66,30.18,-9999.0,WNW,6.9,-,N/A,,Unknown,300,2013-04-04 06:56:00
1:56 AM,32.0,25.0,75,30.18,-9999.0,NNW,9.2,-,N/A,,Unknown,330,2013-04-04 07:56:00
2:56 AM,32.0,24.1,73,30.17,-9999.0,NNW,10.4,-,N/A,,Unknown,340,2013-04-04 08:56:00
3:56 AM,30.9,21.9,69,30.17,-9999.0,ENE,6.9,-,N/A,,Unknown,60,2013-04-04 09:56:00
4:56 AM,27.0,21.9,81,30.19,-9999.0,NNE,9.2,-,N/A,,Unknown,20,2013-04-04 10:56:00
5:56 AM,28.0,24.1,85,30.24,-9999.0,NW,3.5,-,N/A,,Unknown,320,2013-04-04 11:56:00
6:56 AM,28.9,23.0,78,30.27,-9999.0,North,4.6,-,N/A,,Unknown,350,2013-04-04 12:56:00
7:56 AM,30.0,21.9,72,30.25,-9999.0,NE,18.4,-,N/A,,Unknown,40,2013-04-04 13:56:00
8:56 AM,34.0,21.9,61,30.26,-9999.0,NNE,11.5,-,N/A,,Unknown,20,2013-04-04 14:56:00
9:56 AM,36.0,18.0,48,30.25,-9999.0,NE,11.5,-,N/A,,Unknown,50,2013-04-04 15:56:00
10:56 AM,39.0,18.0,43,30.26,-9999.0,NE,10.4,-,N/A,,Unknown,50,2013-04-04 16:56:00
11:56 AM,42.1,18.0,38,30.26,-9999.0,ENE,13.8,19.6,N/A,,Unknown,70,2013-04-04 17:56:00
12:56 PM,43.0,19.9,40,30.24,-9999.0,NE,10.4,-,N/A,,Unknown,50,2013-04-04 18:56:00
1:56 PM,46.0,23.0,40,30.21,-9999.0,East,10.4,18.4,N/A,,Unknown,90,2013-04-04 19:56:00
2:56 PM,45.0,21.0,39,30.20,-9999.0,ENE,9.2,16.1,N/A,,Unknown,70,2013-04-04 20:56:00
3:56 PM,46.0,19.9,35,30.19,-9999.0,East,8.1,-,N/A,,Unknown,80,2013-04-04 21:56:00
4:56 PM,46.0,19.0,34,30.18,-9999.0,ESE,9.2,17.3,N/A,,Unknown,120,2013-04-04 22:56:00
5:56 PM,46.9,18.0,32,30.17,-9999.0,ESE,10.4,-,N/A,,Unknown,110,2013-04-04 23:56:00
6:56 PM,44.1,18.0,35,30.16,-9999.0,ESE,13.8,-,N/A,,Unknown,120,2013-04-05 00:56:00
7:56 PM,39.0,19.0,45,30.16,-9999.0,East,9.2,-,N/A,,Unknown,100,2013-04-05 01:56:00
9:56 PM,37.9,25.0,60,30.15,-9999.0,East,10.4,-,N/A,,Unknown,100,2013-04-05 03:56:00
10:56 PM,37.9,21.9,53,30.12,-9999.0,ESE,15.0,20.7,N/A,,Unknown,110,2013-04-05 04:56:00
11:56 PM,35.1,23.0,61,30.10,-9999.0,SE,18.4,-,N/A,,Unknown,130,2013-04-05 05:56:00